Flag for Latvia Weather past 2 weeks in Liepāja, Latvia

Now
86 °F

Sunny.


Feels Like: 86 °F
Forecast: 67 / 76 °F
Wind: 15 mph from Southwest

Location: Liepaja International Airport

Current Time: Jul 30, 2014 at 3:12:09 PM

Latest Report: Jul 30, 2014 at 2:50 PM


Visibility: 10 mi

Pressure: 29.77 "Hg

Humidity: 43%

Dew point: 61 °F

Location of LiepājaLocation

Historic Weather in Liepāja — Graph

°F

Liepāja temperature yesterday

Maximum temperature yesterday: 84 °F (at 12:20 PM)
Minimum temperature yesterday: 63 °F (at 3:50 AM)
Average temperature yesterday: 74 °F

Past Weeks' High & Low Weather Summary

 TemperatureHumidityPressure
High86 °F (Jul 25, 2:20 PM)100% (Jul 16, 3:20 AM)30.18 "Hg (Jul 16, 3:20 AM)
Low50 °F (Jul 18, 5:20 AM)32% (Jul 22, 3:20 PM)29.77 "Hg (Jul 30, 4:20 AM)
Average70 °F74%30.05 "Hg
* Reported Jul 15 1:20 PM — Jul 30 1:50 PM, Liepāja, Weather by CustomWeather, © 2014

Note: Actual official high and low records may vary slightly from our data, if they occured in-between our weather recording intervals... More about our weather records

Advertising

Liepāja weather history for previous 24 hours

 ConditionsComfort  
Time TempWeatherWind HumidityBarometerVisibility
1:50 PM
Jul 30
86 °FSunny.13 mph38%29.77 "Hg10 mi
1:20 PM84 °FPassing clouds.10 mph58%29.77 "HgN/A
12:50 PM84 °FPassing clouds.3 mph62%29.77 "HgN/A
12:20 PM82 °FSunny.2 mph62%29.77 "Hg10 mi
11:50 AM81 °FPassing clouds.3 mph66%29.77 "HgN/A
11:20 AM75 °FPassing clouds.3 mph74%29.80 "HgN/A
10:50 AM77 °FPassing clouds.3 mph69%29.80 "HgN/A
10:20 AM77 °FPassing clouds.3 mph69%29.80 "HgN/A
9:50 AM75 °FSunny.6 mph69%29.80 "Hg10 mi
9:20 AM75 °FPassing clouds.3 mph74%29.77 "HgN/A
8:50 AM75 °FSunny.6 mph74%29.77 "Hg10 mi
8:20 AM73 °FPassing clouds.5 mph74%29.77 "HgN/A
7:50 AM70 °FSunny.3 mph83%29.77 "Hg10 mi
7:20 AM68 °FMild.5 mph88%29.77 "Hg6 mi
6:50 AM66 °FPassing clouds.3 mph94%29.77 "HgN/A
6:20 AM63 °FFog.5 mph100%29.77 "HgN/A
5:50 AM64 °FMild.3 mph94%29.77 "Hg3 mi
5:20 AM63 °FMild.5 mph100%29.77 "Hg3 mi
4:50 AM63 °FMild.3 mph100%29.77 "Hg6 mi
4:20 AM63 °FMild.2 mph100%29.77 "Hg6 mi
3:50 AM66 °FClear.2 mph88%29.80 "Hg10 mi
3:20 AM66 °FClear.2 mph88%29.80 "Hg10 mi
2:50 AM68 °FPassing clouds.3 mph83%29.80 "HgN/A
2:20 AM66 °FClear.2 mph94%29.80 "Hg10 mi
1:50 AM70 °FClear.2 mph83%29.80 "Hg10 mi
1:20 AM70 °FClear.6 mph83%29.80 "Hg10 mi
12:50 AM68 °FPassing clouds.3 mph88%29.80 "HgN/A
12:20 AM68 °FClear.5 mph88%29.80 "Hg10 mi
11:50 PM
Jul 29
70 °FClear.6 mph83%29.80 "Hg10 mi
11:20 PM70 °FSunny.6 mph83%29.80 "Hg10 mi
10:50 PM72 °FPassing clouds.5 mph78%29.80 "HgN/A
10:20 PM73 °FSunny.8 mph78%29.80 "Hg10 mi
9:50 PM75 °FSunny.8 mph78%29.80 "Hg10 mi
9:20 PM77 °FWarm.1 mph74%29.80 "Hg5 mi
8:50 PM81 °FSunny.2 mph66%29.80 "Hg10 mi
8:20 PM82 °FSunny.No wind62%29.80 "Hg10 mi
7:50 PM84 °FSunny.No wind58%29.80 "Hg10 mi
7:20 PM84 °FSunny.1 mph58%29.80 "Hg10 mi
6:50 PM82 °FSunny.1 mph58%29.80 "Hg10 mi
6:20 PM84 °FSunny.3 mph55%29.80 "Hg10 mi
5:50 PM84 °FPassing clouds.5 mph55%29.80 "HgN/A
5:20 PM84 °FSunny.5 mph55%29.80 "Hg10 mi
4:50 PM82 °FSunny.5 mph58%29.80 "Hg10 mi
4:20 PM82 °FPassing clouds.7 mph58%29.80 "HgN/A
3:50 PM82 °FPassing clouds.8 mph62%29.80 "HgN/A
3:20 PM82 °FPassing clouds.7 mph62%29.83 "HgN/A
Weather by CustomWeather, © 2014

See weather overviewHow to use our weather pages